Find Palapa C1

NORAD ID: 23779 Int'l Des: 1996-006 Owner: SINDO/PSN Country: ID operational
HEOCIRCULAR

リアルタイム位置

3D地球を読み込み中...

Palapa C1について

説明を読み込み中...

次回通過

Passes for default location (London). Set your location on the main map for personalized predictions.

高度履歴

Loading altitude history...

軌道要素

1 23779U 96006A 26105.85165312 -.00000069 00000-0 00000-0 0 9990
2 23779 10.7337 46.4039 0004509 207.1931 164.3194 0.99588811110232
Epoch: Apr 15, 2026 • Age: 22 hours

現在のステータス

高度 35991.7 km
速度 3.07 km/s
衛星直下点 -4.15°S, 94.53°W
打ち上げ日 Feb 1, 1996
運用期間 30.2 years
タイプ other

技術仕様

分類 Payload
質量 2989.00 kg
乾燥質量 1600.00 kg
総質量 2989.00 kg
長さ 4.50 m
直径 2.80 m
スパン 20.00 m
形状 Box + 2 Pan
製造者 HSES
バスタイプ HS-601
フェーズステータス Unknown Active Status
所有者/国 SINDO/PSN/ID

Most Searched